Location: Pella
(41.4080°N, 92.9160°W)
Time: 20:39:43
(UTC-05:00)

Iridium 91 - Visible Passes

Search period start: 22 July 2014 00:00
Search period end: 01 August 2014 00:00
Orbit: 775 x 780 km, 86.4° (Epoch: 22 July)

Date Brightness Start Highest point End Pass type
(mag) Time Alt. Az. Time Alt. Az. Time Alt. Az.
22 Jul 8.4 04:40:22 10° ESE 04:43:04 14° ENE 04:45:46 10° NE visible
24 Jul 7.2 05:11:29 10° SSE 05:16:13 37° E 05:20:59 10° NNE visible
25 Jul 8.1 04:39:11 10° SE 04:42:57 21° E 04:46:43 10° NNE visible
26 Jul 8.6 04:08:25 10° E 04:09:48 11° ENE 04:11:10 10° ENE visible
27 Jul 6.4 05:11:12 10° SSE 05:16:14 54° E 05:21:18 10° NNE visible
28 Jul 7.5 04:38:27 10° SE 04:42:53 29° E 04:47:20 10° NNE visible
29 Jul 8.2 04:06:31 10° ESE 04:09:39 16° ENE 04:12:47 10° NE visible
30 Jul 5.7 05:11:06 10° S 05:16:17 78° E 05:21:30 10° N visible
31 Jul 6.8 04:38:00 10° SSE 04:42:52 42° E 04:47:44 10° NNE visible
